Regional Weather Roundup
Issued by NWS

Home | Current Version | Previous Version | Graphics & Text | Print | Product List | Glossary On
Versions: 1 2 3 4 5 6 7 8 9 10 11 12 13 14 15 16 17 18 19 20 21 22 23 24 25 26 27 28 29 30 31 32 33 34 35 36 37 38 39 40 41 42 43 44 45 46 47 48
000
ASUS45 KBOU 220307
RWRCO

WEATHER ROUNDUP FOR COLORADO
NATIONAL WEATHER SERVICE DENVER/BOULDER CO
900 PM MDT MON JUL 21 2014

NOTE: "FAIR" INDICATES FEW OR NO CLOUDS BELOW 12000 FEET WITH NO
SIGNIFICANT WEATHER AND/OR OBSTRUCTIONS TO VISIBILITY.

COZ001>005-013-030-031-220400-
...NORTHWEST COLORADO...

CITY           SKY/WX    TMP DP  RH WIND       PRES   REMARKS
CRAIG          PTCLDY    72  42  34 E6        30.21R
HAYDEN         PTCLDY    72  36  26 SE13      30.25R
MEEKER         CLEAR     75  29  18 SW3       30.23R
MOUNT WERNER   NOT AVBL
STEAMBOAT SPGS PTCLDY    70  38  30 CALM      30.28S
WALDEN         CLEAR     63  32  31 CALM      30.40S
$$

COZ006>008-011-220400-
...WEST CENTRAL VALLEYS...

CITY           SKY/WX    TMP DP  RH WIND       PRES   REMARKS
GRAND JUNCTION CLEAR     83  18   9 NW7       30.09R
MONTROSE       CLEAR     80  32  17 S5        30.20R
EAGLE            N/A    N/A N/A N/A MISG        N/A
RIFLE          CLEAR     83  34  17 W8        30.15R
DELTA          CLEAR     85  33  15 CALM      30.13R
NUCLA          CLEAR     82  23  11 S10       30.25R
$$

COZ017>023-064>068-220400-
...SOUTHWEST COLORADO...

CITY           SKY/WX    TMP DP  RH WIND       PRES   REMARKS
DURANGO        PTCLDY    79  30  16 W10       30.27R
CORTEZ         CLEAR     69  42  37 CALM      30.23R
PAGOSA SPRINGS PTCLDY    75  37  25 CALM      30.38R
TELLURIDE      PTCLDY    70  30  23 W3        30.51R
WOLF CREEK PAS NOT AVBL
$$

COZ009-010-012-014-032>034-037-058>063-220400-
...CENTRAL COLORADO...

CITY           SKY/WX    TMP DP  RH WIND       PRES   REMARKS
ASPEN          PTCLDY    67  40  37 S7        30.37R
BUENA VISTA    MOCLDY    63  42  45 NW6       30.38S
COPPER MTN     MOCLDY    59  32  36 W8        30.75S
BERTHOUD PASS  FAIR      52  37  58 NW13      30.80S
COTTONWOOD PAS MOCLDY    68  21  17 NW10      30.56R
GUNNISON       PTCLDY    64  45  48 CALM      30.41R
KREMMLING      PTCLDY    73  28  19 NW8       30.35R
LEADVILLE      MOCLDY    62  30  29 N7        30.55S
MONARCH PASS   PTCLDY    54  34  47 W17       30.84S
SALIDA         NOT AVBL
SUNLIGHT       CLEAR     61  32  33 CALM      30.66R
WILKERSON PASS CLEAR     59  32  36 CALM      30.71R
$$

COZ069>075-220400-
...SAN LUIS VALLEY/SANGRE DE CRISTO MOUNTAINS...

CITY           SKY/WX    TMP DP  RH WIND       PRES   REMARKS
ALAMOSA        MOCLDY    64  51  62 CALM      30.38S
LA VETA PASS   NOT AVBL
SAGUACHE       PTCLDY    63  46  55 N8        30.40S
$$

COZ035-036-038>040-220400-
...NORTHERN COLORADO FRONT RANGE...

CITY           SKY/WX    TMP DP  RH WIND       PRES   REMARKS
DENVER INTL AP PTCLDY    85  40  20 VRB5      30.14R
DMNS CITY PARK   N/A     80  45  29 SW5       30.13S
AURORA         PTCLDY    79  46  31 S9        30.17R
FRONT RANGE AP NOT AVBL
ERIE MUNI ARPT PTCLDY    75  50  41 CALM      30.11S
BOULDER MUN AP PTCLDY    79  46  31 W5        30.14R
CENTENNIAL     PTCLDY    78  42  27 S8        30.18R
BROOMFIELD     MOCLDY    82  45  26 NW9       30.16S
FORT COLLINS   MOCLDY    82  50  32 CALM      30.10R
LONGMONT       MOCLDY    75  52  43 NW5       30.13R
$$

COZ041-046-047-076>085-087-088-220400-
...PIKES PEAK/PALMER DIVIDE AND SOUTHERN FOOTHILLS...

CITY           SKY/WX    TMP DP  RH WIND       PRES   REMARKS
COLO. SPRINGS  PTCLDY    77  47  34 SE5       30.23S
A. F. ACADEMY  PTCLDY    72  49  43 VRB1      30.26S
ELLICOTT       PTCLDY    69  51  52 SW8       30.21S
FALCON         PTCLDY    71  48  44 CALM      30.30S
FORT CARSON    PTCLDY    76  46  34 W9        30.19S
LIMON          CLEAR     79  43  27 W6        30.15R
MONUMENT HILL  PTCLDY    66  43  42 S9        30.29S
TRINIDAD       CLEAR     73  52  47 SW12      30.21R
$$

COZ042>045-048>051-090-091-220400-
...NORTHEAST COLORADO...

CITY           SKY/WX    TMP DP  RH WIND       PRES   REMARKS
GREELEY ARPT   MOCLDY    75  55  50 CALM      30.09R
AKRON          CLEAR     82  45  27 S13       30.08R
BURLINGTON     CLEAR     75  61  61 S9        30.08R
WRAY             N/A     84  55  36 S13       30.01R
STERLING       CLEAR     81  55  41 NE8       30.04R
HOLYOKE        PTCLDY    77  63  61 SE3       30.01R
FORT MORGAN    CLEAR     79  42  27 N13       30.07R
$$

COZ086-089-092>099-220400-
...SOUTHEAST COLORADO...

CITY           SKY/WX    TMP DP  RH WIND       PRES   REMARKS
PUEBLO         CLEAR     77  51  40 W5        30.08S
LA JUNTA       CLEAR     80  57  45 S7        30.07R
LAMAR          PTCLDY    79  62  56 SE22G28   30.07R
SPRINGFIELD      N/A     77  57  50 E8        30.12R
$$


USA.gov is the U.S. government's official web portal to all federal, state and local government web resources and services.